| time (UTC) | temp C | wind direction | speed KPH | gust KPH | rain 1hr cm | rain 24hr cm | rain mn cm | humidity % | barometer mb |
| 20260507074007 | 6 | 295 | 0.0 | 4.8 | 0.00 | 2.21 | 0.00 | 92 | 1008.2 |
| 20260507073511 | 6 | 221 | 0.0 | 4.8 | 0.00 | 2.21 | 0.00 | 92 | 1008.4 |
| 20260507073028 | 6 | 271 | 0.0 | 3.2 | 0.00 | 2.21 | 0.00 | 92 | 1008.4 |
| 20260507072505 | 6 | 181 | 0.0 | 3.2 | 0.00 | 2.21 | 0.00 | 91 | 1008.4 |
| 20260507072004 | 6 | 167 | 0.0 | 3.2 | 0.00 | 2.21 | 0.00 | 91 | 1008.3 |
| 20260507071512 | 6 | 217 | 0.0 | 3.2 | 0.00 | 2.21 | 0.00 | 91 | 1008.2 |
| 20260507071006 | 6 | 229 | 0.0 | 3.2 | 0.00 | 2.21 | 0.00 | 91 | 1008.1 |
| 20260507070507 | 6 | 253 | 0.0 | 3.2 | 0.00 | 2.21 | 0.00 | 91 | 1008.0 |
| 20260507070027 | 6 | 266 | 0.0 | 3.2 | 0.00 | 2.21 | 0.00 | 91 | 1008.0 |
| 20260507065507 | 6 | 266 | 0.0 | 3.2 | 0.00 | 2.21 | 0.00 | 91 | 1007.8 |
| 20260507065007 | 6 | 266 | 0.0 | 3.2 | 0.00 | 2.21 | 0.00 | 91 | 1008.0 |
| 20260507064524 | 6 | 266 | 0.0 | 3.2 | 0.00 | 2.21 | 0.00 | 91 | 1007.9 |
| 20260507064008 | 6 | 266 | 0.0 | 3.2 | 0.00 | 2.21 | 0.00 | 90 | 1007.9 |
| 20260507063511 | 6 | 266 | 0.0 | 3.2 | 0.00 | 2.21 | 0.00 | 90 | 1007.8 |
| 20260507063026 | 6 | 1 | 0.0 | 3.2 | 0.00 | 2.21 | 0.00 | 89 | 1007.4 |
| 20260507062510 | 6 | 1 | 0.0 | 4.8 | 0.00 | 2.21 | 0.00 | 89 | 1007.4 |
| 20260507062012 | 6 | 276 | 0.0 | 4.8 | 0.00 | 2.21 | 0.00 | 88 | 1007.8 |
| 20260507061511 | 6 | 271 | 1.6 | 4.8 | 0.00 | 2.21 | 0.00 | 88 | 1008.0 |
| 20260507061005 | 6 | 269 | 1.6 | 4.8 | 0.00 | 2.21 | 0.00 | 89 | 1008.3 |
| 20260507060506 | 6 | 338 | 0.0 | 3.2 | 0.00 | 2.21 | 0.00 | 90 | 1008.2 |
| 20260507060017 | 6 | 338 | 0.0 | 3.2 | 0.00 | 2.21 | 0.00 | 90 | 1007.9 |
| 20260507055506 | 6 | 338 | 0.0 | 3.2 | 0.00 | 2.21 | 0.00 | 90 | 1008.1 |
| 20260507055006 | 6 | 333 | 0.0 | 3.2 | 0.00 | 2.21 | 0.00 | 90 | 1008.1 |
| 20260507054524 | 6 | 324 | 0.0 | 3.2 | 0.00 | 2.21 | 0.00 | 90 | 1008.3 |
| 20260507054011 | 6 | 48 | 0.0 | 3.2 | 0.00 | 2.21 | 0.00 | 89 | 1008.0 |
| 20260507053509 | 6 | 44 | 1.6 | 3.2 | 0.00 | 2.21 | 0.00 | 89 | 1008.4 |
| 20260507053025 | 6 | 299 | 0.0 | 3.2 | 0.00 | 2.21 | 0.00 | 90 | 1008.6 |
| 20260507052503 | 6 | 295 | 1.6 | 3.2 | 0.00 | 2.21 | 0.00 | 89 | 1008.8 |
| 20260507052002 | 6 | 304 | 0.0 | 3.2 | 0.00 | 2.21 | 0.00 | 90 | 1008.9 |
| 20260507051511 | 6 | 304 | 0.0 | 3.2 | 0.00 | 2.21 | 0.00 | 90 | 1008.7 |
| 20260507051005 | 6 | 295 | 1.6 | 4.8 | 0.00 | 2.21 | 0.00 | 89 | 1008.7 |
| 20260507050504 | 6 | 295 | 1.6 | 4.8 | 0.00 | 2.21 | 0.00 | 89 | 1008.5 |
| 20260507050012 | 6 | 359 | 0.0 | 3.2 | 0.00 | 2.21 | 0.00 | 89 | 1008.4 |
| 20260507045506 | 7 | 359 | 0.0 | 4.8 | 0.00 | 2.21 | 0.00 | 89 | 1008.3 |
| 20260507045004 | 7 | 20 | 0.0 | 4.8 | 0.00 | 2.21 | 0.00 | 89 | 1008.3 |
| 20260507044517 | 7 | 322 | 1.6 | 4.8 | 0.00 | 2.21 | 0.00 | 89 | 1008.2 |
| 20260507044008 | 7 | 313 | 0.0 | 4.8 | 0.00 | 2.21 | 0.00 | 90 | 1008.2 |
| 20260507043507 | 7 | 304 | 1.6 | 4.8 | 0.00 | 2.21 | 0.00 | 89 | 1008.2 |
| 20260507043025 | 7 | 266 | 1.6 | 4.8 | 0.00 | 2.21 | 0.00 | 89 | 1008.1 |
| 20260507042508 | 7 | 314 | 3.2 | 3.2 | 0.00 | 2.21 | 0.00 | 88 | 1008.0 |
| 20260507042012 | 7 | 322 | 1.6 | 4.8 | 0.00 | 2.21 | 0.00 | 88 | 1007.9 |
| 20260507041524 | 7 | 298 | 1.6 | 4.8 | 0.00 | 2.21 | 0.00 | 88 | 1007.9 |
| 20260507041004 | 7 | 91 | 1.6 | 4.8 | 0.00 | 2.21 | 0.00 | 87 | 1008.2 |
| 20260507040503 | 7 | 330 | 0.0 | 3.2 | 0.00 | 2.21 | 0.00 | 89 | 1008.3 |
| 20260507040012 | 7 | 1 | 0.0 | 4.8 | 0.00 | 2.21 | 0.00 | 89 | 1008.3 |
| 20260507035503 | 7 | 330 | 1.6 | 4.8 | 0.00 | 2.21 | 2.21 | 89 | 1008.2 |
| 20260507035006 | 7 | 1 | 0.0 | 3.2 | 0.00 | 2.21 | 2.21 | 89 | 1008.3 |
| 20260507034517 | 7 | 67 | 0.0 | 3.2 | 0.00 | 2.21 | 2.21 | 89 | 1008.3 |
| 20260507034007 | 7 | 316 | 0.0 | 3.2 | 0.00 | 2.21 | 2.21 | 88 | 1008.3 |
| 20260507033510 | 7 | 315 | 0.0 | 3.2 | 0.00 | 2.21 | 2.21 | 89 | 1008.3 |
| 20260507033023 | 7 | 328 | 0.0 | 3.2 | 0.00 | 2.21 | 2.21 | 89 | 1008.2 |
| 20260507032508 | 7 | 301 | 1.6 | 3.2 | 0.00 | 2.21 | 2.21 | 90 | 1008.3 |
| 20260507032011 | 7 | 84 | 0.0 | 3.2 | 0.03 | 2.21 | 2.21 | 90 | 1008.2 |
| 20260507031525 | 7 | 87 | 0.0 | 3.2 | 0.03 | 2.21 | 2.21 | 90 | 1008.4 |
| 20260507031010 | 7 | 93 | 0.0 | 3.2 | 0.03 | 2.21 | 2.21 | 90 | 1008.3 |
| 20260507030509 | 8 | 21 | 0.0 | 3.2 | 0.03 | 2.21 | 2.21 | 90 | 1008.3 |
| 20260507030019 | 8 | 8 | 0.0 | 3.2 | 0.03 | 2.21 | 2.21 | 89 | 1008.4 |
| 20260507025507 | 8 | 349 | 0.0 | 3.2 | 0.03 | 2.21 | 2.21 | 89 | 1008.5 |
| 20260507025004 | 8 | 55 | 0.0 | 3.2 | 0.03 | 2.21 | 2.21 | 89 | 1008.4 |
| 20260507024517 | 8 | 23 | 0.0 | 3.2 | 0.03 | 2.21 | 2.21 | 90 | 1008.4 |
| 20260507024009 | 8 | 11 | 0.0 | 3.2 | 0.03 | 2.21 | 2.21 | 89 | 1008.5 |
| 20260507023506 | 8 | 304 | 0.0 | 3.2 | 0.03 | 2.21 | 2.21 | 88 | 1008.5 |
| 20260507023019 | 8 | 37 | 1.6 | 3.2 | 0.03 | 2.21 | 2.21 | 88 | 1008.5 |
| 20260507022506 | 8 | 338 | 0.0 | 3.2 | 0.03 | 2.21 | 2.21 | 88 | 1008.7 |
| 20260507022008 | 8 | 51 | 0.0 | 3.2 | 0.00 | 2.18 | 2.18 | 88 | 1008.6 |
| 20260507021525 | 8 | 359 | 0.0 | 4.8 | 0.00 | 2.18 | 2.18 | 87 | 1008.6 |
| 20260507021009 | 8 | 359 | 0.0 | 4.8 | 0.00 | 2.18 | 2.18 | 87 | 1008.5 |
| 20260507020512 | 8 | 44 | 0.0 | 3.2 | 0.00 | 2.18 | 2.18 | 86 | 1008.5 |
| 20260507020030 | 8 | 68 | 1.6 | 3.2 | 0.00 | 2.18 | 2.18 | 87 | 1008.5 |
| 20260507015507 | 8 | 13 | 0.0 | 3.2 | 0.00 | 2.18 | 2.18 | 87 | 1008.4 |
| 20260507015009 | 8 | 25 | 0.0 | 4.8 | 0.00 | 2.18 | 2.18 | 87 | 1008.3 |
| 20260507014519 | 8 | 20 | 0.0 | 4.8 | 0.00 | 2.18 | 2.18 | 86 | 1008.2 |
| 20260507014005 | 8 | 15 | 1.6 | 4.8 | 0.00 | 2.18 | 2.18 | 86 | 1008.2 |
| 20260507013505 | 8 | 1 | 1.6 | 6.4 | 0.00 | 2.18 | 2.18 | 86 | 1008.0 |
| 20260507013039 | 8 | 340 | 3.2 | 11.3 | 0.00 | 2.18 | 2.18 | 84 | 1008.2 |
| 20260507012507 | 9 | 294 | 1.6 | 11.3 | 0.00 | 2.18 | 2.18 | 86 | 1008.1 |
| 20260507012006 | 9 | 70 | 3.2 | 8.0 | 0.00 | 2.18 | 2.18 | 85 | 1008.0 |
| 20260507011522 | 9 | 352 | 1.6 | 4.8 | 0.00 | 2.18 | 2.18 | 86 | 1007.9 |
| 20260507011008 | 9 | 29 | 1.6 | 6.4 | 0.03 | 2.18 | 2.18 | 87 | 1007.9 |
| 20260507010508 | 9 | 297 | 1.6 | 6.4 | 0.03 | 2.18 | 2.18 | 87 | 1007.6 |
| 20260507010032 | 9 | 29 | 1.6 | 11.3 | 0.03 | 2.18 | 2.18 | 87 | 1007.5 |
| 20260507005510 | 9 | 309 | 1.6 | 11.3 | 0.03 | 2.18 | 2.18 | 87 | 1007.5 |
| 20260507005006 | 10 | 317 | 1.6 | 8.0 | 0.03 | 2.18 | 2.18 | 87 | 1007.4 |
| 20260507004526 | 10 | 307 | 1.6 | 8.0 | 0.03 | 2.18 | 2.18 | 87 | 1007.5 |
| 20260507004011 | 10 | 302 | 1.6 | 8.0 | 0.03 | 2.18 | 2.18 | 89 | 1007.3 |
| 20260507003504 | 10 | 281 | 1.6 | 3.2 | 0.03 | 2.18 | 2.18 | 89 | 1007.2 |
| 20260507003017 | 10 | 293 | 1.6 | 3.2 | 0.03 | 2.18 | 2.18 | 90 | 1007.0 |
| 20260507002510 | 10 | 256 | 1.6 | 6.4 | 0.03 | 2.18 | 2.18 | 90 | 1007.0 |
| 20260507002006 | 10 | 307 | 1.6 | 6.4 | 0.03 | 2.18 | 2.18 | 89 | 1006.8 |
| 20260507001522 | 11 | 339 | 0.0 | 4.8 | 0.03 | 2.18 | 2.18 | 91 | 1006.8 |
| 20260507001007 | 11 | 319 | 1.6 | 4.8 | 0.00 | 2.16 | 2.16 | 90 | 1006.5 |
| 20260507000505 | 11 | 359 | 1.6 | 4.8 | 0.00 | 2.16 | 2.16 | 90 | 1006.3 |
| 20260507000026 | 11 | 359 | 1.6 | 4.8 | 0.00 | 2.16 | 2.16 | 90 | 1006.1 |
| 20260506235507 | 11 | 274 | 0.0 | 3.2 | 0.00 | 2.16 | 2.16 | 91 | 1006.1 |
| 20260506235009 | 11 | 311 | 0.0 | 3.2 | 0.00 | 2.16 | 2.16 | 91 | 1005.9 |
| 20260506234524 | 11 | 60 | 0.0 | 3.2 | 0.00 | 2.16 | 2.16 | 90 | 1005.7 |
| 20260506234011 | 11 | 58 | 0.0 | 3.2 | 0.00 | 2.16 | 2.16 | 90 | 1005.8 |
| 20260506233510 | 11 | 63 | 0.0 | 3.2 | 0.00 | 2.16 | 2.16 | 90 | 1005.7 |
| 20260506233013 | 11 | 63 | 0.0 | 4.8 | 0.08 | 2.16 | 2.16 | 90 | 1005.6 |
| 20260506232504 | 11 | 72 | 1.6 | 4.8 | 0.10 | 2.16 | 2.16 | 89 | 1005.5 |
| 20260506232009 | 11 | 286 | 0.0 | 6.4 | 0.10 | 2.16 | 2.16 | 90 | 1005.5 |
| 20260506231520 | 11 | 82 | 1.6 | 6.4 | 0.10 | 2.16 | 2.16 | 89 | 1005.4 |
| 20260506231006 | 11 | 360 | 3.2 | 6.4 | 0.10 | 2.16 | 2.16 | 88 | 1005.4 |
| 20260506230505 | 12 | 350 | 1.6 | 9.7 | 0.10 | 2.16 | 2.16 | 87 | 1005.2 |
| 20260506230006 | 12 | 44 | 4.8 | 9.7 | 0.10 | 2.16 | 2.16 | 88 | 1005.0 |
| 20260506225503 | 13 | 70 | 3.2 | 8.0 | 0.10 | 2.16 | 2.16 | 89 | 1004.8 |
| 20260506225004 | 13 | 44 | 3.2 | 8.0 | 0.10 | 2.16 | 2.16 | 90 | 1004.5 |
| 20260506224507 | 14 | 276 | 3.2 | 6.4 | 0.10 | 2.16 | 2.16 | 90 | 1004.6 |
| 20260506224004 | 14 | 48 | 1.6 | 6.4 | 0.10 | 2.16 | 2.16 | 90 | 1004.3 |
| 20260506223504 | 15 | 53 | 1.6 | 6.4 | 0.10 | 2.16 | 2.16 | 90 | 1004.3 |
| 20260506223009 | 15 | 82 | 1.6 | 3.2 | 0.03 | 2.08 | 2.08 | 93 | 1004.3 |
| 20260506222505 | 15 | 248 | 0.0 | 3.2 | 0.03 | 2.06 | 2.06 | 93 | 1004.1 |
| 20260506222005 | 15 | 248 | 0.0 | 1.6 | 0.05 | 2.06 | 2.06 | 93 | 1004.0 |
| 20260506221516 | 15 | 248 | 0.0 | 3.2 | 0.10 | 2.06 | 2.06 | 92 | 1004.1 |
| 20260506221007 | 15 | 248 | 0.0 | 3.2 | 0.18 | 2.08 | 2.06 | 92 | 1004.1 |
| 20260506220509 | 15 | 203 | 0.0 | 3.2 | 0.18 | 2.13 | 2.06 | 93 | 1004.0 |
| 20260506220019 | 15 | 211 | 0.0 | 0.0 | 0.18 | 2.13 | 2.06 | 93 | 1004.0 |
| 20260506215504 | 15 | 210 | 0.0 | 0.0 | 0.18 | 2.13 | 2.06 | 93 | 1004.0 |
| 20260506215002 | 15 | 210 | 0.0 | 3.2 | 0.18 | 2.13 | 2.06 | 92 | 1004.0 |
| 20260506214508 | 15 | 211 | 0.0 | 3.2 | 0.18 | 2.13 | 2.06 | 92 | 1003.9 |
| 20260506214003 | 15 | 254 | 0.0 | 3.2 | 0.20 | 2.13 | 2.06 | 92 | 1004.0 |
| 20260506213503 | 15 | 255 | 0.0 | 3.2 | 0.20 | 2.13 | 2.06 | 92 | 1003.9 |
| 20260506213009 | 15 | 255 | 0.0 | 3.2 | 0.20 | 2.13 | 2.06 | 92 | 1004.0 |
| 20260506212505 | 15 | 31 | 0.0 | 3.2 | 0.18 | 2.11 | 2.03 | 92 | 1004.0 |
| 20260506212005 | 15 | 48 | 1.6 | 3.2 | 0.15 | 2.08 | 2.01 | 93 | 1004.0 |
| 20260506211514 | 15 | 119 | 0.0 | 3.2 | 0.13 | 2.03 | 1.96 | 92 | 1003.9 |
| 20260506211003 | 15 | 346 | 0.0 | 4.8 | 0.05 | 1.96 | 1.88 | 92 | 1004.0 |
| 20260506210504 | 15 | 259 | 1.6 | 4.8 | 0.08 | 1.96 | 1.88 | 92 | 1003.9 |
| 20260506210021 | 16 | 263 | 1.6 | 6.4 | 0.08 | 1.96 | 1.88 | 92 | 1003.7 |
| 20260506205509 | 16 | 359 | 3.2 | 6.4 | 0.08 | 1.96 | 1.88 | 92 | 1003.7 |
| 20260506205010 | 16 | 260 | 1.6 | 4.8 | 0.08 | 1.96 | 1.88 | 92 | 1003.8 |
| 20260506204527 | 16 | 250 | 0.0 | 4.8 | 0.10 | 1.96 | 1.88 | 93 | 1003.9 |
| 20260506204003 | 16 | 248 | 1.6 | 4.8 | 0.08 | 1.93 | 1.85 | 93 | 1003.8 |
| 20260506203503 | 16 | 250 | 3.2 | 4.8 | 0.10 | 1.93 | 1.85 | 93 | 1003.9 |
| 20260506203007 | 16 | 248 | 1.6 | 4.8 | 0.10 | 1.93 | 1.85 | 93 | 1003.9 |
| 20260506202504 | 16 | 215 | 0.0 | 3.2 | 0.10 | 1.93 | 1.85 | 93 | 1003.9 |
| 20260506202003 | 15 | 165 | 0.0 | 3.2 | 0.15 | 1.93 | 1.85 | 93 | 1004.0 |
| 20260506201512 | 15 | 257 | 1.6 | 3.2 | 0.20 | 1.91 | 1.83 | 93 | 1004.0 |
| 20260506201006 | 15 | 113 | 0.0 | 3.2 | 0.36 | 1.91 | 1.83 | 93 | 1004.0 |
| 20260506200505 | 15 | 252 | 0.0 | 3.2 | 0.43 | 1.88 | 1.80 | 93 | 1004.1 |
| 20260506200015 | 15 | 244 | 0.0 | 3.2 | 0.64 | 1.88 | 1.80 | 93 | 1004.1 |
| 20260506195506 | 15 | 270 | 0.0 | 3.2 | 0.71 | 1.88 | 1.80 | 93 | 1004.2 |
| 20260506195008 | 15 | 283 | 1.6 | 3.2 | 0.74 | 1.88 | 1.80 | 92 | 1004.3 |
| 20260506194518 | 15 | 252 | 0.0 | 3.2 | 0.74 | 1.85 | 1.78 | 93 | 1004.4 |
| 20260506194012 | 15 | 205 | 1.6 | 3.2 | 0.76 | 1.85 | 1.78 | 92 | 1004.4 |
| 20260506193509 | 15 | 236 | 0.0 | 3.2 | 0.74 | 1.83 | 1.75 | 93 | 1004.5 |
| 20260506193003 | 15 | 51 | 0.0 | 3.2 | 0.76 | 1.83 | 1.75 | 93 | 1004.6 |
| 20260506192502 | 15 | 247 | 0.0 | 3.2 | 0.79 | 1.83 | 1.75 | 93 | 1004.6 |
| 20260506192007 | 15 | 76 | 0.0 | 3.2 | 0.76 | 1.78 | 1.70 | 92 | 1004.6 |
| 20260506191512 | 15 | 235 | 0.0 | 3.2 | 0.71 | 1.70 | 1.63 | 92 | 1004.8 |
| 20260506191006 | 15 | 235 | 0.0 | 3.2 | 0.58 | 1.55 | 1.47 | 92 | 1004.9 |
| 20260506190504 | 15 | 237 | 0.0 | 3.2 | 0.51 | 1.45 | 1.37 | 92 | 1004.9 |
| 20260506190016 | 15 | 252 | 0.0 | 3.2 | 0.33 | 1.24 | 1.17 | 91 | 1005.1 |
| 20260506185504 | 15 | 201 | 0.0 | 4.8 | 0.25 | 1.17 | 1.09 | 91 | 1005.1 |
| 20260506185003 | 15 | 309 | 0.0 | 4.8 | 0.25 | 1.14 | 1.07 | 92 | 1005.1 |
| 20260506184537 | 15 | 231 | 1.6 | 6.4 | 0.23 | 1.12 | 1.04 | 92 | 1005.2 |
| 20260506184013 | 15 | 193 | 1.6 | 6.4 | 0.23 | 1.09 | 1.02 | 92 | 1005.2 |
| 20260506183507 | 15 | 234 | 1.6 | 4.8 | 0.28 | 1.09 | 1.02 | 92 | 1005.2 |
| 20260506183033 | 15 | 257 | 0.0 | 4.8 | 0.28 | 1.07 | 0.99 | 92 | 1005.2 |
| 20260506182508 | 15 | 236 | 1.6 | 4.8 | 0.28 | 1.04 | 0.97 | 92 | 1005.3 |
| 20260506182012 | 15 | 211 | 1.6 | 4.8 | 0.33 | 1.02 | 0.94 | 92 | 1005.3 |
| 20260506181513 | 15 | 203 | 1.6 | 6.4 | 0.33 | 0.99 | 0.91 | 92 | 1005.4 |
| 20260506181006 | 15 | 169 | 0.0 | 6.4 | 0.36 | 0.97 | 0.89 | 92 | 1005.5 |
| 20260506180504 | 15 | 281 | 1.6 | 6.4 | 0.38 | 0.94 | 0.86 | 92 | 1005.4 |
| 20260506180016 | 15 | 190 | 1.6 | 4.8 | 0.38 | 0.91 | 0.84 | 92 | 1005.5 |
| 20260506175505 | 15 | 262 | 3.2 | 4.8 | 0.43 | 0.91 | 0.84 | 92 | 1005.5 |
| 20260506175003 | 15 | 264 | 3.2 | 4.8 | 0.43 | 0.89 | 0.81 | 92 | 1005.6 |
| 20260506174523 | 15 | 113 | 1.6 | 4.8 | 0.48 | 0.89 | 0.81 | 92 | 1005.7 |
| 20260506174007 | 15 | 169 | 1.6 | 6.4 | 0.48 | 0.86 | 0.79 | 92 | 1005.8 |
| 20260506173507 | 15 | 248 | 1.6 | 6.4 | 0.48 | 0.81 | 0.74 | 92 | 1005.9 |
| 20260506173020 | 15 | 352 | 0.0 | 4.8 | 0.48 | 0.79 | 0.71 | 92 | 1005.9 |
| 20260506172508 | 15 | 196 | 1.6 | 4.8 | 0.48 | 0.76 | 0.69 | 91 | 1006.1 |
| 20260506172009 | 15 | 229 | 1.6 | 4.8 | 0.43 | 0.69 | 0.61 | 91 | 1006.1 |
| 20260506171523 | 15 | 275 | 1.6 | 6.4 | 0.41 | 0.66 | 0.58 | 91 | 1006.2 |
| 20260506171008 | 15 | 283 | 1.6 | 6.4 | 0.38 | 0.61 | 0.53 | 91 | 1006.2 |
| 20260506170505 | 15 | 269 | 1.6 | 4.8 | 0.36 | 0.56 | 0.48 | 91 | 1006.2 |
| 20260506170011 | 15 | 237 | 1.6 | 6.4 | 0.33 | 0.53 | 0.46 | 91 | 1006.2 |
| 20260506165504 | 15 | 231 | 3.2 | 6.4 | 0.28 | 0.48 | 0.41 | 90 | 1006.3 |
| 20260506165004 | 15 | 259 | 1.6 | 6.4 | 0.28 | 0.46 | 0.38 | 91 | 1006.3 |
| 20260506164516 | 15 | 232 | 1.6 | 6.4 | 0.23 | 0.41 | 0.33 | 90 | 1006.2 |
| 20260506164008 | 15 | 278 | 1.6 | 6.4 | 0.20 | 0.38 | 0.30 | 90 | 1006.2 |
| 20260506163504 | 15 | 260 | 3.2 | 6.4 | 0.18 | 0.33 | 0.25 | 89 | 1006.3 |
| 20260506163018 | 15 | 271 | 0.0 | 3.2 | 0.15 | 0.30 | 0.23 | 89 | 1006.2 |
| 20260506162508 | 15 | 281 | 0.0 | 3.2 | 0.13 | 0.28 | 0.20 | 89 | 1006.5 |
| 20260506162009 | 15 | 198 | 0.0 | 3.2 | 0.13 | 0.25 | 0.18 | 89 | 1006.5 |
| 20260506161524 | 15 | 245 | 0.0 | 3.2 | 0.13 | 0.25 | 0.18 | 89 | 1006.6 |
| 20260506161009 | 15 | 95 | 0.0 | 3.2 | 0.13 | 0.23 | 0.15 | 88 | 1006.7 |
| 20260506160511 | 15 | 125 | 0.0 | 3.2 | 0.13 | 0.20 | 0.13 | 89 | 1006.8 |
| 20260506160026 | 15 | 259 | 0.0 | 3.2 | 0.13 | 0.20 | 0.13 | 88 | 1006.8 |
| 20260506155504 | 15 | 227 | 0.0 | 3.2 | 0.13 | 0.20 | 0.13 | 88 | 1006.9 |
| 20260506155003 | 15 | 142 | 0.0 | 3.2 | 0.10 | 0.18 | 0.10 | 88 | 1006.9 |
| 20260506154512 | 15 | 1 | 0.0 | 3.2 | 0.10 | 0.18 | 0.10 | 88 | 1007.0 |
| 20260506154005 | 15 | 359 | 0.0 | 3.2 | 0.10 | 0.18 | 0.10 | 87 | 1007.1 |
| 20260506153509 | 15 | 347 | 0.0 | 3.2 | 0.08 | 0.15 | 0.08 | 86 | 1007.1 |
| 20260506153021 | 15 | 353 | 0.0 | 3.2 | 0.08 | 0.15 | 0.08 | 85 | 1007.4 |
| 20260506152508 | 16 | 358 | 0.0 | 3.2 | 0.08 | 0.15 | 0.08 | 85 | 1007.5 |
| 20260506152008 | 16 | 327 | 0.0 | 3.2 | 0.05 | 0.13 | 0.05 | 85 | 1007.5 |
| 20260506151524 | 16 | 356 | 0.0 | 3.2 | 0.05 | 0.13 | 0.05 | 84 | 1007.7 |
| 20260506151008 | 16 | 343 | 0.0 | 3.2 | 0.03 | 0.10 | 0.03 | 83 | 1007.9 |
| 20260506150507 | 16 | 360 | 0.0 | 3.2 | 0.00 | 0.08 | 0.00 | 81 | 1007.9 |
| 20260506150023 | 16 | 1 | 0.0 | 3.2 | 0.00 | 0.08 | 0.00 | 80 | 1007.9 |
| 20260506145510 | 16 | 73 | 0.0 | 3.2 | 0.00 | 0.08 | 0.00 | 79 | 1008.0 |
| 20260506145010 | 16 | 124 | 1.6 | 3.2 | 0.00 | 0.08 | 0.00 | 79 | 1007.9 |
| 20260506144527 | 16 | 287 | 0.0 | 3.2 | 0.00 | 0.08 | 0.00 | 79 | 1008.1 |
| 20260506144005 | 16 | 251 | 0.0 | 4.8 | 0.00 | 0.08 | 0.00 | 78 | 1008.1 |
| 20260506143504 | 16 | 288 | 1.6 | 4.8 | 0.00 | 0.08 | 0.00 | 78 | 1007.9 |
| 20260506143003 | 16 | 279 | 1.6 | 4.8 | 0.00 | 0.08 | 0.00 | 78 | 1007.8 |
| 20260506142505 | 16 | 188 | 0.0 | 4.8 | 0.00 | 0.08 | 0.00 | 78 | 1007.7 |
| 20260506142003 | 16 | 257 | 1.6 | 4.8 | 0.00 | 0.08 | 0.00 | 78 | 1007.7 |
| 20260506141502 | 16 | 168 | 1.6 | 4.8 | 0.00 | 0.08 | 0.00 | 78 | 1007.7 |
| 20260506141005 | 16 | 134 | 1.6 | 4.8 | 0.00 | 0.08 | 0.00 | 78 | 1007.8 |
| 20260506140506 | 16 | 86 | 1.6 | 4.8 | 0.00 | 0.08 | 0.00 | 78 | 1007.7 |
| 20260506140005 | 16 | 212 | 1.6 | 4.8 | 0.00 | 0.08 | 0.00 | 79 | 1007.7 |
| 20260506135502 | 16 | 110 | 0.0 | 3.2 | 0.00 | 0.08 | 0.00 | 79 | 1007.6 |
| 20260506135005 | 16 | 75 | 1.6 | 4.8 | 0.00 | 0.08 | 0.00 | 79 | 1007.6 |
| 20260506134504 | 16 | 217 | 1.6 | 8.0 | 0.00 | 0.08 | 0.00 | 79 | 1007.7 |
| 20260506134000 | 15 | 64 | 1.6 | 6.4 | 0.00 | 0.08 | 0.00 | 79 | 1007.7 |
| 20260506133003 | 15 | 236 | 1.6 | 6.4 | 0.00 | 0.08 | 0.00 | 81 | 1007.6 |
| 20260506132506 | 15 | 53 | 1.6 | 4.8 | 0.00 | 0.08 | 0.00 | 82 | 1007.5 |
| 20260506132005 | 15 | 68 | 0.0 | 3.2 | 0.00 | 0.08 | 0.00 | 82 | 1007.6 |
| 20260506131503 | 15 | 10 | 0.0 | 3.2 | 0.00 | 0.08 | 0.00 | 83 | 1007.7 |
| 20260506131003 | 15 | 296 | 1.6 | 3.2 | 0.00 | 0.08 | 0.00 | 82 | 1007.9 |
| 20260506130505 | 15 | 73 | 0.0 | 3.2 | 0.00 | 0.08 | 0.00 | 83 | 1007.9 |
| 20260506130004 | 15 | 79 | 0.0 | 3.2 | 0.00 | 0.08 | 0.00 | 83 | 1008.1 |
| 20260506125502 | 14 | 24 | 1.6 | 3.2 | 0.00 | 0.08 | 0.00 | 84 | 1008.2 |
| 20260506125002 | 14 | 70 | 0.0 | 3.2 | 0.00 | 0.08 | 0.00 | 84 | 1008.3 |
| 20260506124502 | 14 | 205 | 1.6 | 3.2 | 0.00 | 0.08 | 0.00 | 85 | 1008.3 |
| 20260506124004 | 14 | 324 | 0.0 | 3.2 | 0.00 | 0.08 | 0.00 | 86 | 1008.3 |
| 20260506122004 | 13 | 257 | 1.6 | 4.8 | 0.00 | 0.08 | 0.00 | 88 | 1008.5 |
| 20260506121504 | 13 | 65 | 0.0 | 4.8 | 0.00 | 0.08 | 0.00 | 88 | 1007.6 |
| 20260506121003 | 13 | 57 | 1.6 | 4.8 | 0.00 | 0.08 | 0.00 | 88 | 1007.9 |
| 20260506120503 | 13 | 290 | 0.0 | 3.2 | 0.00 | 0.08 | 0.00 | 89 | 1008.1 |
| 20260506120010 | 12 | 259 | 0.0 | 3.2 | 0.00 | 0.08 | 0.00 | 90 | 1007.9 |
| 20260506115503 | 12 | 210 | 0.0 | 3.2 | 0.00 | 0.08 | 0.00 | 91 | 1008.1 |
| 20260506115004 | 12 | 116 | 0.0 | 3.2 | 0.00 | 0.08 | 0.00 | 91 | 1008.0 |
| 20260506114511 | 12 | 274 | 0.0 | 3.2 | 0.00 | 0.08 | 0.00 | 92 | 1008.2 |
| 20260506114003 | 12 | 233 | 0.0 | 3.2 | 0.00 | 0.08 | 0.00 | 93 | 1008.3 |
| 20260506113503 | 12 | 233 | 0.0 | 3.2 | 0.00 | 0.08 | 0.00 | 93 | 1008.2 |
| 20260506113010 | 11 | 236 | 0.0 | 3.2 | 0.00 | 0.08 | 0.00 | 93 | 1008.3 |
| 20260506111504 | 11 | 246 | 0.0 | 3.2 | 0.00 | 0.08 | 0.00 | 94 | 1008.1 |
| 20260506111004 | 11 | 96 | 0.0 | 3.2 | 0.00 | 0.08 | 0.00 | 94 | 1008.1 |
| 20260506110505 | 10 | 96 | 0.0 | 3.2 | 0.00 | 0.08 | 0.00 | 94 | 1008.2 |
| 20260506110006 | 10 | 96 | 0.0 | 3.2 | 0.00 | 0.08 | 0.00 | 93 | 1008.2 |
| 20260506105503 | 10 | 96 | 0.0 | 1.6 | 0.00 | 0.08 | 0.00 | 93 | 1008.4 |
| 20260506105002 | 10 | 106 | 0.0 | 3.2 | 0.00 | 0.08 | 0.00 | 93 | 1008.4 |
| 20260506104503 | 10 | 187 | 0.0 | 3.2 | 0.00 | 0.08 | 0.00 | 93 | 1008.4 |
| 20260506104003 | 10 | 230 | 0.0 | 3.2 | 0.00 | 0.08 | 0.00 | 93 | 1008.3 |
| 20260506103503 | 10 | 230 | 0.0 | 3.2 | 0.00 | 0.08 | 0.00 | 93 | 1008.3 |
| 20260506103009 | 10 | 207 | 0.0 | 3.2 | 0.00 | 0.08 | 0.00 | 93 | 1008.3 |
| 20260506102504 | 10 | 206 | 0.0 | 3.2 | 0.00 | 0.08 | 0.00 | 93 | 1008.2 |
| 20260506102004 | 10 | 184 | 0.0 | 3.2 | 0.00 | 0.08 | 0.00 | 93 | 1008.3 |
| 20260506101508 | 10 | 155 | 0.0 | 3.2 | 0.00 | 0.08 | 0.00 | 93 | 1008.2 |
| 20260506101003 | 10 | 155 | 0.0 | 3.2 | 0.00 | 0.08 | 0.00 | 93 | 1008.3 |
| 20260506100506 | 10 | 158 | 0.0 | 3.2 | 0.00 | 0.08 | 0.00 | 93 | 1008.3 |
| 20260506100009 | 10 | 214 | 0.0 | 3.2 | 0.00 | 0.08 | 0.00 | 92 | 1008.3 |
| 20260506095503 | 10 | 184 | 0.0 | 3.2 | 0.00 | 0.08 | 0.00 | 92 | 1008.2 |
| 20260506095003 | 10 | 186 | 0.0 | 3.2 | 0.00 | 0.08 | 0.00 | 92 | 1008.2 |
| 20260506094507 | 10 | 241 | 0.0 | 0.0 | 0.00 | 0.08 | 0.00 | 93 | 1008.4 |
| 20260506094004 | 10 | 241 | 0.0 | 3.2 | 0.00 | 0.08 | 0.00 | 93 | 1008.3 |
| 20260506093505 | 10 | 241 | 0.0 | 3.2 | 0.00 | 0.08 | 0.00 | 93 | 1008.1 |
| 20260506093004 | 10 | 224 | 0.0 | 1.6 | 0.00 | 0.08 | 0.00 | 92 | 1008.2 |
| 20260506092504 | 11 | 226 | 0.0 | 1.6 | 0.00 | 0.08 | 0.00 | 92 | 1008.2 |
| 20260506092004 | 11 | 226 | 0.0 | 3.2 | 0.00 | 0.08 | 0.00 | 92 | 1008.3 |
| 20260506091506 | 11 | 226 | 0.0 | 3.2 | 0.00 | 0.08 | 0.00 | 92 | 1008.2 |
| 20260506091004 | 11 | 226 | 0.0 | 3.2 | 0.00 | 0.08 | 0.00 | 92 | 1008.2 |
| 20260506090504 | 11 | 226 | 0.0 | 3.2 | 0.00 | 0.08 | 0.00 | 92 | 1008.2 |
| 20260506090008 | 11 | 226 | 0.0 | 3.2 | 0.00 | 0.08 | 0.00 | 92 | 1008.3 |
| 20260506085503 | 11 | 227 | 0.0 | 0.0 | 0.00 | 0.08 | 0.00 | 92 | 1008.3 |
| 20260506085003 | 11 | 227 | 0.0 | 3.2 | 0.00 | 0.08 | 0.00 | 92 | 1008.2 |
| 20260506084507 | 11 | 227 | 0.0 | 3.2 | 0.00 | 0.08 | 0.00 | 92 | 1008.2 |
| 20260506084005 | 11 | 227 | 0.0 | 3.2 | 0.00 | 0.08 | 0.00 | 92 | 1008.5 |
| 20260506083503 | 11 | 227 | 0.0 | 3.2 | 0.00 | 0.08 | 0.00 | 92 | 1008.4 |
| 20260506083006 | 11 | 234 | 0.0 | 3.2 | 0.00 | 0.08 | 0.00 | 92 | 1008.3 |
| 20260506082504 | 11 | 234 | 0.0 | 3.2 | 0.00 | 0.08 | 0.00 | 92 | 1008.4 |
| 20260506082005 | 11 | 234 | 0.0 | 3.2 | 0.00 | 0.08 | 0.00 | 92 | 1008.5 |
| 20260506081508 | 11 | 234 | 0.0 | 3.2 | 0.00 | 0.08 | 0.00 | 92 | 1008.5 |
| 20260506081003 | 11 | 234 | 0.0 | 1.6 | 0.00 | 0.08 | 0.00 | 92 | 1008.5 |
| 20260506080504 | 11 | 236 | 0.0 | 1.6 | 0.00 | 0.08 | 0.00 | 92 | 1008.7 |